,,PA_Meas_PMT16A,,PR_Meas_QMR101_102,,RH_Meas_QMH101,,SR_Meas_QMS101,,TA_Meas_QMH101,,GenWind,,GenWind,
time,status,PA,status,PR,status,RH,status,SR,status,TA,status,DirAvg,status,SpdAvg,
2012-12-28, 00:00:04,VALID,914.055,VALID,0,VALID,95.5748,VALID,0,VALID,19.7043,VALID,206,VALID,0,
2012-12-28, 00:01:04,VALID,914.999,VALID,0,VALID,95.6662,VALID,0.107441,VALID,19.7238,VALID,206,VALID,0,
2012-12-28, 00:02:04,VALID,914.737,VALID,0,VALID,95.7196,VALID,0,VALID,19.7238,VALID,206,VALID,0,
2012-12-28, 00:03:04,VALID,916.364,VALID,0,VALID,95.7272,VALID,0,VALID,19.7433,VALID,206,VALID,0,
2012-12-28, 00:04:04,VALID,915.417,VALID,0,VALID,95.6967,VALID,0,VALID,19.7238,VALID,206,VALID,0,
2012-12-28, 00:05:04,VALID,914.57,VALID,0,VALID,95.6281,VALID,0,VALID,19.7448,VALID,206,VALID,0,
2012-12-28, 00:06:04,VALID,915.583,VALID,0,VALID,95.6586,VALID,0,VALID,19.7253,VALID,206,VALID,0,
2012-12-28, 00:07:04,VALID,915.735,VALID,0,VALID,95.651,VALID,0,VALID,19.7043,VALID,206,VALID,0,
2012-12-28, 00:08:04,VALID,915.368,VALID,0,VALID,95.6891,VALID,0,VALID,19.7448,VALID,206,VALID,0,
2012-12-28, 00:09:04,VALID,915.058,VALID,0,VALID,95.5595,VALID,0.107441,VALID,19.7058,VALID,206,VALID,0,
2012-12-28, 00:10:04,VALID,915.45,VALID,0,VALID,95.3766,VALID,0,VALID,19.6653,VALID,206,VALID,0,
2012-12-28, 00:11:04,VALID,915.217,VALID,0,VALID,95.2317,VALID,0,VALID,19.6068,VALID,206,VALID,0,
2012-12-28, 00:12:04,VALID,916.092,VALID,0,VALID,95.3156,VALID,0,VALID,19.5678,VALID,206,VALID,0,
2012-12-28, 00:13:04,VALID,915.712,VALID,0,VALID,95.3461,VALID,0,VALID,19.5498,VALID,206,VALID,0,
2012-12-28, 00:14:04,VALID,915.375,VALID,0,VALID,95.5214,VALID,0,VALID,19.5498,VALID,206,VALID,0,
2012-12-28, 00:15:04,VALID,915.532,VALID,0,VALID,95.5062,VALID,0,VALID,19.5108,VALID,206,VALID,0,
2012-12-28, 00:16:04,VALID,916.236,VALID,0,VALID,95.3537,VALID,0,VALID,19.4913,VALID,206,VALID,0,
2012-12-28, 00:17:04,VALID,915.44,VALID,0,VALID,95.2393,VALID,0,VALID,19.4132,VALID,206,VALID,0,
2012-12-28, 00:18:04,VALID,915.78,VALID,0,VALID,95.1783,VALID,0,VALID,19.3742,VALID,206,VALID,0,
2012-12-28, 00:19:04,VALID,915.579,VALID,0,VALID,95.4985,VALID,0,VALID,19.3352,VALID,206,VALID,0,
2012-12-28, 00:20:04,VALID,914.866,VALID,0,VALID,95.6357,VALID,0,VALID,19.3352,VALID,206,VALID,0,
2012-12-28, 00:21:04,VALID,914.482,VALID,0,VALID,95.6739,VALID,0,VALID,19.3157,VALID,206,VALID,0,
2012-12-28, 00:22:04,VALID,915.346,VALID,0,VALID,95.8721,VALID,0,VALID,19.3352,VALID,206,VALID,0,
2012-12-28, 00:23:04,VALID,916.035,VALID,0,VALID,95.9864,VALID,0,VALID,19.3547,VALID,206,VALID,0,
2012-12-28, 00:24:04,VALID,916.882,VALID,0,VALID,96.0627,VALID,0,VALID,19.3742,VALID,191,VALID,0,
2012-12-28, 00:25:04,VALID,917.298,VALID,0,VALID,96.0703,VALID,0,VALID,19.3937,VALID,148,VALID,0,
2012-12-28, 00:26:04,INVALID,914.599,VALID,0,VALID,96.1923,VALID,0,VALID,19.3937,VALID,148,VALID,0,
2012-12-28, 00:27:04,VALID,916.098,VALID,0,VALID,96.238,VALID,0,VALID,19.4327,VALID,147,VALID,0,
2012-12-28, 00:28:04,VALID,916.204,VALID,0,VALID,96.3142,VALID,0,VALID,19.4913,VALID,147,VALID,0,
2012-12-28, 00:29:04,VALID,915.439,VALID,0,VALID,96.3981,VALID,0,VALID,19.5303,VALID,147,VALID,0,
2012-12-28, 00:30:04,VALID,917.179,VALID,0,VALID,96.299,VALID,0,VALID,19.5303,VALID,147,VALID,0,
2012-12-28, 00:31:04,VALID,915.476,VALID,0,VALID,96.0017,VALID,0,VALID,19.4913,VALID,148,VALID,0,
2012-12-28, 00:32:04,VALID,914.985,VALID,0,VALID,95.9331,VALID,0,VALID,19.4523,VALID,148,VALID,0,
2012-12-28, 00:33:04,VALID,915.724,VALID,0,VALID,95.9941,VALID,0,VALID,19.4327,VALID,149,VALID,0,
2012-12-28, 00:34:04,VALID,915.671,VALID,0,VALID,95.9483,VALID,0,VALID,19.4523,VALID,173,VALID,0,
2012-12-28, 00:35:04,VALID,915.239,VALID,0,VALID,95.9254,VALID,0,VALID,19.4118,VALID,173,VALID,0,
2012-12-28, 00:36:04,VALID,915.13,VALID,0,VALID,95.8568,VALID,0,VALID,19.4132,VALID,173,VALID,0,
2012-12-28, 00:37:04,VALID,915.435,VALID,0,VALID,95.8721,VALID,0,VALID,19.4132,VALID,173,VALID,0,
2012-12-28, 00:38:04,VALID,915.89,VALID,0,VALID,95.7654,VALID,0,VALID,19.3742,VALID,173,VALID,0,
2012-12-28, 00:39:04,VALID,916.901,VALID,0,VALID,95.7654,VALID,0,VALID,19.3547,VALID,173,VALID,0,
2012-12-28, 00:40:04,INVALID,914.442,VALID,0,VALID,95.8263,VALID,0,VALID,19.3352,VALID,173,VALID,0,
2012-12-28, 00:41:04,VALID,914.238,VALID,0,VALID,95.9483,VALID,0,VALID,19.3352,VALID,173,VALID,0,
2012-12-28, 00:42:04,VALID,915.182,VALID,0,VALID,95.9559,VALID,0,VALID,19.2962,VALID,165,VALID,0,
2012-12-28, 00:43:04,VALID,915.431,VALID,0,VALID,96.1008,VALID,0,VALID,19.2767,VALID,148,VALID,0,
2012-12-28, 00:44:04,VALID,915.3,VALID,0,VALID,96.1389,VALID,0,VALID,19.2977,VALID,143,VALID,0,
2012-12-28, 00:45:04,VALID,915.203,VALID,0,VALID,96.2075,VALID,0,VALID,19.2572,VALID,143,VALID,0,
2012-12-28, 00:46:04,VALID,915.819,VALID,0,VALID,96.2151,VALID,0,VALID,19.2377,VALID,143,VALID,0,
2012-12-28, 00:47:04,INVALID,912.747,VALID,0,VALID,96.2914,VALID,0,VALID,19.1792,VALID,143,VALID,0,
2012-12-28, 00:48:04,VALID,913.842,VALID,0,VALID,96.4362,VALID,0,VALID,19.1987,VALID,143,VALID,0,
2012-12-28, 06:49:04,VALID,914.994,VALID,0,VALID,95.4909,VALID,64.4647,VALID,19.7448,VALID,134,VALID,0,
2012-12-28, 06:50:04,VALID,914.872,VALID,0,VALID,95.3918,VALID,65.3242,VALID,19.8033,VALID,126,VALID,0,
2012-12-28, 06:51:04,VALID,915.614,VALID,0,VALID,95.2775,VALID,73.1674,VALID,19.8213,VALID,127,VALID,0,
2012-12-28, 06:52:04,VALID,914.337,VALID,0,VALID,95.1326,VALID,79.7213,VALID,19.8813,VALID,129,VALID,0,
2012-12-28, 06:53:04,VALID,915.901,VALID,0,VALID,95.0259,VALID,82.5148,VALID,19.8993,VALID,127,VALID,0,
2012-12-28, 06:54:04,VALID,914.662,VALID,0,VALID,94.9115,VALID,85.8455,VALID,19.9984,VALID,130,VALID,0,
2012-12-28, 06:55:04,VALID,915.276,VALID,0,VALID,94.7362,VALID,88.4241,VALID,20.0569,VALID,133,VALID,0,
2012-12-28, 06:56:04,VALID,914.038,VALID,0,VALID,94.6142,VALID,92.0771,VALID,20.1139,VALID,133,VALID,0,
2012-12-28, 06:57:04,VALID,914.557,VALID,0,VALID,94.4084,VALID,97.4491,VALID,20.1934,VALID,129,VALID,0,
2012-12-28, 06:58:04,VALID,914.966,VALID,0,VALID,94.2407,VALID,102.929,VALID,20.2909,VALID,129,VALID,0,
2012-12-28, 06:59:04,VALID,916.014,VALID,0,VALID,94.012,VALID,107.334,VALID,20.369,VALID,129,VALID,0,
2012-12-28, 07:00:04,VALID,914.341,VALID,0,VALID,93.7375,VALID,110.772,VALID,20.447,VALID,129,VALID,0,
2012-12-28, 07:01:04,VALID,914.399,VALID,0,VALID,93.4097,VALID,114.21,VALID,20.525,VALID,129,VALID,0,
2012-12-28, 07:02:04,VALID,914.38,VALID,0,VALID,92.9371,VALID,117.97,VALID,20.6015,VALID,129,VALID,0,
2012-12-28, 07:03:04,VALID,914.463,VALID,0,VALID,92.5178,VALID,119.797,VALID,20.7185,VALID,102,VALID,0,
2012-12-28, 07:04:04,VALID,914.405,VALID,0,VALID,92.0146,VALID,118.83,VALID,20.8356,VALID,102,VALID,0,
2012-12-28, 07:05:04,VALID,914.673,VALID,0,VALID,91.298,VALID,107.656,VALID,20.9527,VALID,102,VALID,0,
2012-12-28, 07:06:04,VALID,914.451,VALID,0,VALID,90.833,VALID,105.722,VALID,21.1282,VALID,102,VALID,0,
2012-12-28, 07:07:04,VALID,914.545,VALID,0,VALID,90.0402,VALID,100.565,VALID,21.2063,VALID,148,VALID,0,
2012-12-28, 07:08:04,VALID,914.697,VALID,0,VALID,89.5751,VALID,91.7547,VALID,21.2258,VALID,192,VALID,0,
2012-12-28, 07:09:04,VALID,914.621,VALID,0,VALID,89.4837,VALID,88.9613,VALID,21.2453,VALID,192,VALID,0,
2012-12-28, 07:10:04,VALID,913.95,VALID,0,VALID,89.2245,VALID,87.4571,VALID,21.2648,VALID,192,VALID,0,
2012-12-28, 07:11:04,VALID,914.85,VALID,0,VALID,89.6666,VALID,87.0273,VALID,21.2648,VALID,192,VALID,0,
2012-12-28, 07:12:04,VALID,914.682,VALID,0,VALID,89.5675,VALID,88.8538,VALID,21.2843,VALID,192,VALID,0,
2012-12-28, 07:13:04,VALID,914.677,VALID,0,VALID,89.3464,VALID,92.8292,VALID,21.2648,VALID,197,VALID,0,
2012-12-28, 07:14:04,VALID,914.596,VALID,0,VALID,89.7429,VALID,100.028,VALID,21.2063,VALID,201,VALID,0,
2012-12-28, 07:15:04,VALID,914.721,VALID,0,VALID,90.1088,VALID,127.855,VALID,21.1868,VALID,197,VALID,0,
2012-12-28, 07:16:04,VALID,914.583,VALID,0,VALID,89.842,VALID,146.335,VALID,21.2063,VALID,197,VALID,0,
2012-12-28, 07:17:04,VALID,914.867,VALID,0,VALID,89.4913,VALID,139.244,VALID,21.2453,VALID,197,VALID,0,
2012-12-28, 07:18:04,VALID,914.441,VALID,0,VALID,89.5675,VALID,129.144,VALID,21.2843,VALID,93,VALID,0,
2012-12-28, 07:19:04,VALID,914.617,VALID,0,VALID,89.5142,VALID,135.806,VALID,21.325,VALID,100,VALID,0,
2012-12-28, 07:20:04,VALID,914.723,VALID,0,VALID,89.4303,VALID,140.855,VALID,21.4421,VALID,100,VALID,0,
2012-12-28, 07:21:04,VALID,914.739,VALID,0,VALID,89.1101,VALID,142.467,VALID,21.5575,VALID,100,VALID,0,
2012-12-28, 07:22:04,VALID,914.776,VALID,0,VALID,88.8052,VALID,158.368,VALID,21.6356,VALID,84,VALID,0,
2012-12-28, 07:23:04,VALID,914.647,VALID,0,VALID,89.0644,VALID,176.526,VALID,21.6746,VALID,94,VALID,0,
2012-12-28, 07:24:04,VALID,915.302,VALID,0,VALID,88.7671,VALID,184.154,VALID,21.7738,VALID,107,VALID,0,
2012-12-28, 07:25:04,VALID,914.531,VALID,0,VALID,88.7366,VALID,166.856,VALID,21.7136,VALID,120,VALID,0,
2012-12-28, 07:26:04,VALID,914.271,VALID,0,VALID,88.0657,VALID,125.814,VALID,21.7136,VALID,116,VALID,0,
2012-12-28, 07:27:04,VALID,915.021,VALID,0,VALID,88.7518,VALID,116.789,VALID,21.6551,VALID,104,VALID,0,
2012-12-28, 07:28:04,VALID,914.798,VALID,0,VALID,89.0491,VALID,114.317,VALID,21.616,VALID,106,VALID,0,
2012-12-28, 07:29:04,VALID,915.48,VALID,0,VALID,89.5675,VALID,120.979,VALID,21.577,VALID,100,VALID,0,
2012-12-28, 07:30:04,VALID,915.543,VALID,0,VALID,89.2397,VALID,146.442,VALID,21.499,VALID,99,VALID,0,
2012-12-28, 07:31:04,VALID,915.235,VALID,0,VALID,90.0783,VALID,192.105,VALID,21.4404,VALID,110,VALID,0,
2012-12-28, 07:32:04,VALID,914.862,VALID,0,VALID,90.2231,VALID,200.055,VALID,21.4599,VALID,112,VALID,0,
2012-12-28, 07:33:04,VALID,915.407,VALID,0,VALID,89.1406,VALID,202.312,VALID,21.5185,VALID,114,VALID,0,
2012-12-28, 07:34:04,VALID,914.163,VALID,0,VALID,88.9043,VALID,201.882,VALID,21.577,VALID,108,VALID,0,
2012-12-28, 07:35:04,VALID,914.693,VALID,0,VALID,88.6527,VALID,204.568,VALID,21.6941,VALID,127,VALID,0,
2012-12-28, 07:36:04,VALID,914.652,VALID,0,VALID,87.8522,VALID,206.502,VALID,21.6941,VALID,127,VALID,0,
2012-12-28, 07:37:04,VALID,915.118,VALID,0,VALID,88.1801,VALID,208.114,VALID,21.8112,VALID,105,VALID,0,
2012-12-28, 07:38:04,VALID,914.674,VALID,0,VALID,87.067,VALID,208.973,VALID,21.8876,VALID,135,VALID,0,
2012-12-28, 07:39:04,VALID,914.685,VALID,0,VALID,87.0289,VALID,204.031,VALID,21.9266,VALID,129,VALID,0,
2012-12-28, 07:40:04,VALID,914.751,VALID,0,VALID,87.4787,VALID,201.667,VALID,22.0258,VALID,109,VALID,0,
2012-12-28, 07:41:04,VALID,914.79,VALID,0,VALID,87.1814,VALID,210.047,VALID,22.1429,VALID,142,VALID,0,
2012-12-28, 07:42:04,VALID,914.742,VALID,0,VALID,86.3809,VALID,219.287,VALID,22.2015,VALID,132,VALID,0,
2012-12-28, 07:43:04,VALID,914.992,VALID,0,VALID,87.2957,VALID,224.015,VALID,22.1625,VALID,120,VALID,0,
2012-12-28, 07:44:04,VALID,914.314,VALID,0,VALID,87.3186,VALID,225.841,VALID,22.1608,VALID,117,VALID,0,
2012-12-28, 07:45:04,VALID,914.373,VALID,0,VALID,87.4025,VALID,226.916,VALID,22.2388,VALID,160,VALID,0,
2012-12-28, 07:46:04,VALID,914.738,VALID,0,VALID,85.8473,VALID,231.965,VALID,22.3771,VALID,148,VALID,0,
2012-12-28, 07:47:04,VALID,914.384,VALID,0,VALID,85.4204,VALID,236.585,VALID,22.3559,VALID,169,VALID,0,
2012-12-28, 07:48:04,VALID,914.667,VALID,0,VALID,85.4661,VALID,241.957,VALID,22.3576,VALID,187,VALID,0,
2012-12-28, 07:49:04,VALID,914.623,VALID,0,VALID,85.2603,VALID,247.33,VALID,22.3967,VALID,167,VALID,0,
2012-12-28, 07:50:04,VALID,914.676,VALID,0,VALID,85.2374,VALID,248.619,VALID,22.434,VALID,179,VALID,0,
2012-12-28, 07:51:04,VALID,914.773,VALID,0,VALID,85.0621,VALID,250.553,VALID,22.3559,VALID,167,VALID,0,
2012-12-28, 07:52:04,VALID,914.589,VALID,0,VALID,85.3899,VALID,249.478,VALID,22.4357,VALID,174,VALID,0,
2012-12-28, 07:53:04,VALID,914.457,VALID,0,VALID,85.0011,VALID,250.123,VALID,22.395,VALID,170,VALID,0,
2012-12-28, 07:54:04,VALID,914.743,VALID,0,VALID,84.5208,VALID,246.47,VALID,22.3559,VALID,144,VALID,0,
2012-12-28, 07:55:04,VALID,914.659,VALID,0,VALID,84.4065,VALID,239.486,VALID,22.2583,VALID,171,VALID,0,
2012-12-28, 07:56:04,VALID,914.623,VALID,0,VALID,85.1154,VALID,238.949,VALID,22.1803,VALID,159,VALID,0,
2012-12-28, 07:57:04,VALID,914.786,VALID,0,VALID,85.3518,VALID,233.147,VALID,22.1413,VALID,165,VALID,0,
2012-12-28, 07:58:04,VALID,914.785,VALID,0,VALID,85.8625,VALID,214.99,VALID,22.1803,VALID,166,VALID,0,
2012-12-28, 07:59:04,VALID,914.621,VALID,0,VALID,85.1993,VALID,192.857,VALID,22.2193,VALID,173,VALID,0,
2012-12-28, 08:00:04,VALID,914.662,VALID,0,VALID,85.0621,VALID,163.633,VALID,22.2388,VALID,162,VALID,0,
2012-12-28, 08:01:04,VALID,914.653,VALID,0,VALID,85.2222,VALID,154.608,VALID,22.2388,VALID,162,VALID,0,
2012-12-28, 08:02:04,VALID,914.67,VALID,0,VALID,85.6338,VALID,170.079,VALID,22.2974,VALID,175,VALID,0,
2012-12-28, 08:03:04,VALID,914.74,VALID,0,VALID,84.5513,VALID,177.17,VALID,22.2583,VALID,173,VALID,0,
2012-12-28, 08:04:04,VALID,914.74,VALID,0,VALID,85.5347,VALID,187.162,VALID,22.2779,VALID,168,VALID,0,
2012-12-28, 08:05:04,VALID,914.679,VALID,0,VALID,84.7343,VALID,188.452,VALID,22.3364,VALID,163,VALID,0,
2012-12-28, 08:06:04,VALID,914.574,VALID,0,VALID,85.1841,VALID,196.832,VALID,22.2974,VALID,156,VALID,0,
2012-12-28, 08:07:04,VALID,914.893,VALID,0,VALID,84.8639,VALID,218.643,VALID,22.2779,VALID,167,VALID,0,
2012-12-28, 08:08:04,VALID,914.589,VALID,0,VALID,85.3213,VALID,250.23,VALID,22.3169,VALID,155,VALID,0,
2012-12-28, 08:09:04,VALID,914.834,VALID,0,VALID,84.5589,VALID,278.273,VALID,22.3559,VALID,169,VALID,0,
2012-12-28, 08:10:04,VALID,914.698,VALID,0,VALID,84.7419,VALID,302.877,VALID,22.434,VALID,181,VALID,0,
2012-12-28, 08:11:04,VALID,914.707,VALID,0,VALID,84.3988,VALID,317.703,VALID,22.4925,VALID,173,VALID,0,
2012-12-28, 08:12:04,VALID,914.822,VALID,0,VALID,83.9567,VALID,323.505,VALID,22.5901,VALID,172,VALID,0,
2012-12-28, 08:13:04,VALID,914.731,VALID,0,VALID,83.5679,VALID,326.836,VALID,22.5901,VALID,165,VALID,0,
2012-12-28, 08:14:04,VALID,914.705,VALID,0,VALID,84.315,VALID,335.431,VALID,22.6096,VALID,163,VALID,0,
2012-12-28, 08:15:04,VALID,914.739,VALID,0,VALID,84.5437,VALID,338.547,VALID,22.7072,VALID,183,VALID,0,
2012-12-28, 08:16:04,VALID,914.873,VALID,0,VALID,83.3697,VALID,343.919,VALID,22.8421,VALID,181,VALID,0,
2012-12-28, 08:17:04,VALID,914.648,VALID,0,VALID,82.7217,VALID,346.283,VALID,22.8812,VALID,166,VALID,0,
2012-12-28, 08:18:04,VALID,914.897,VALID,0,VALID,82.8055,VALID,344.779,VALID,22.9219,VALID,153,VALID,0,
2012-12-28, 08:19:04,VALID,914.748,VALID,0,VALID,83.4917,VALID,351.44,VALID,22.9983,VALID,188,VALID,0,
2012-12-28, 08:20:04,VALID,914.259,VALID,0,VALID,81.7611,VALID,356.275,VALID,23.1171,VALID,174,VALID,0,
2012-12-28, 08:21:04,VALID,914.677,VALID,0,VALID,82.028,VALID,358.316,VALID,23.2147,VALID,178,VALID,0,
2012-12-28, 08:22:04,VALID,914.72,VALID,0,VALID,81.4714,VALID,366.697,VALID,23.213,VALID,165,VALID,0,
2012-12-28, 08:23:04,VALID,914.724,VALID,0,VALID,81.5096,VALID,376.259,VALID,23.3904,VALID,165,VALID,0,
2012-12-28, 08:24:04,VALID,914.638,VALID,0,VALID,79.6799,VALID,369.812,VALID,23.5857,VALID,175,VALID,0,
2012-12-28, 08:25:04,VALID,914.699,VALID,0,VALID,80.2365,VALID,359.283,VALID,23.701,VALID,175,VALID,0,
2012-12-28, 08:26:04,VALID,914.623,VALID,0,VALID,79.2149,VALID,361.217,VALID,23.9566,VALID,175,VALID,0,
2012-12-28, 08:27:04,VALID,914.666,VALID,0,VALID,76.6077,VALID,357.886,VALID,23.9939,VALID,167,VALID,0,
2012-12-28, 08:28:04,VALID,914.866,VALID,0,VALID,78.7575,VALID,349.291,VALID,23.7986,VALID,165,VALID,0,
2012-12-28, 08:29:04,VALID,914.674,VALID,0,VALID,77.9189,VALID,339.621,VALID,23.7205,VALID,150,VALID,0,
2012-12-28, 08:30:04,VALID,914.668,VALID,0,VALID,78.323,VALID,321.786,VALID,23.5661,VALID,177,VALID,0,
2012-12-28, 08:31:04,VALID,914.734,VALID,0,VALID,78.2925,VALID,308.786,VALID,23.5466,VALID,165,VALID,0,
2012-12-28, 08:32:04,VALID,914.538,VALID,0,VALID,78.3916,VALID,311.042,VALID,23.6052,VALID,156,VALID,0,
2012-12-28, 08:33:04,VALID,914.653,VALID,0,VALID,79.4741,VALID,300.405,VALID,23.6442,VALID,162,VALID,0,
2012-12-28, 08:34:04,VALID,914.618,VALID,0,VALID,79.3445,VALID,296.538,VALID,23.701,VALID,155,VALID,0,
2012-12-28, 08:35:04,VALID,914.673,VALID,0,VALID,78.3916,VALID,293.422,VALID,23.701,VALID,169,VALID,0,
2012-12-28, 08:36:04,VALID,914.724,VALID,0,VALID,79.0624,VALID,288.909,VALID,23.5821,VALID,161,VALID,0,
2012-12-28, 08:37:04,VALID,914.74,VALID,0,VALID,79.5656,VALID,301.587,VALID,23.5253,VALID,168,VALID,0,
2012-12-28, 08:38:04,VALID,914.87,VALID,0,VALID,79.9086,VALID,304.058,VALID,23.4667,VALID,176,VALID,0,
2012-12-28, 08:39:04,VALID,914.87,VALID,0,VALID,80.4423,VALID,308.678,VALID,23.504,VALID,169,VALID,0,
2012-12-28, 08:40:04,VALID,914.719,VALID,0,VALID,80.9607,VALID,316.737,VALID,23.5448,VALID,167,VALID,0,
2012-12-28, 08:41:04,VALID,915.081,VALID,0,VALID,79.8858,VALID,324.58,VALID,23.6815,VALID,173,VALID,0,
2012-12-28, 08:42:04,VALID,914.95,VALID,0,VALID,77.8198,VALID,333.068,VALID,23.74,VALID,165,VALID,0,
2012-12-28, 08:43:04,VALID,914.783,VALID,0,VALID,78.605,VALID,333.927,VALID,23.7791,VALID,172,VALID,0,
2012-12-28, 08:44:04,VALID,914.727,VALID,0,VALID,78.1019,VALID,347.357,VALID,23.7773,VALID,146,VALID,0,
2012-12-28, 08:45:04,VALID,914.964,VALID,0,VALID,77.0499,VALID,347.25,VALID,23.8944,VALID,158,VALID,0,
2012-12-28, 08:46:04,VALID,914.91,VALID,0,VALID,77.2404,VALID,353.696,VALID,23.9939,VALID,152,VALID,0,
2012-12-28, 08:47:04,VALID,914.701,VALID,0,VALID,77.0422,VALID,368.416,VALID,24.111,VALID,74,VALID,0,
2012-12-28, 08:48:04,VALID,915.775,VALID,0,VALID,75.2279,VALID,375.614,VALID,24.2458,VALID,223,VALID,0,
2012-12-28, 08:49:04,VALID,914.693,VALID,0,VALID,75.6472,VALID,381.309,VALID,24.4253,VALID,203,VALID,0,
2012-12-28, 08:50:04,VALID,914.706,VALID,0,VALID,75.8149,VALID,387.11,VALID,24.5034,VALID,240,VALID,0,
2012-12-28, 08:51:04,VALID,914.972,VALID,0,VALID,76.966,VALID,385.606,VALID,24.6596,VALID,228,VALID,0,
2012-12-28, 08:52:04,VALID,914.767,VALID,0,VALID,76.4781,VALID,377.978,VALID,24.8159,VALID,221,VALID,0.0300781,
2012-12-28, 08:53:04,VALID,914.798,VALID,0,VALID,73.9319,VALID,365.73,VALID,24.9721,VALID,180,VALID,0,
2012-12-28, 08:54:04,VALID,915.001,VALID,0,VALID,73.9548,VALID,348.432,VALID,25.1088,VALID,184,VALID,0,
2012-12-28, 08:55:04,VALID,914.544,VALID,0,VALID,72.9713,VALID,327.481,VALID,25.1069,VALID,197,VALID,0,
2012-12-28, 08:56:04,VALID,914.775,VALID,0,VALID,72.4682,VALID,302.232,VALID,25.185,VALID,188,VALID,0,
2012-12-28, 08:57:04,VALID,914.693,VALID,0,VALID,71.6372,VALID,280.207,VALID,25.2065,VALID,167,VALID,0,
2012-12-28, 08:58:04,VALID,915.005,VALID,0,VALID,72.1099,VALID,256.784,VALID,25.0288,VALID,221,VALID,0,
2012-12-28, 08:59:04,VALID,914.734,VALID,0,VALID,73.7794,VALID,235.833,VALID,24.9916,VALID,186,VALID,0,
2012-12-28, 09:00:04,VALID,914.854,VALID,0,VALID,72.3615,VALID,215.527,VALID,24.9116,VALID,209,VALID,0,
2012-12-28, 09:01:04,VALID,914.851,VALID,0,VALID,73.3449,VALID,198.659,VALID,25.0093,VALID,168,VALID,0,
2012-12-28, 09:02:04,VALID,914.905,VALID,0,VALID,71.5229,VALID,186.196,VALID,24.9702,VALID,172,VALID,0,
2012-12-28, 09:03:04,VALID,914.764,VALID,0,VALID,72.9103,VALID,177.6,VALID,24.7944,VALID,174,VALID,0,
2012-12-28, 09:04:04,VALID,914.753,VALID,0,VALID,75.1593,VALID,172.443,VALID,24.7963,VALID,158,VALID,0,
2012-12-28, 09:05:04,VALID,914.64,VALID,0,VALID,73.5812,VALID,169.542,VALID,24.8726,VALID,158,VALID,0,
2012-12-28, 09:06:04,VALID,914.876,VALID,0,VALID,73.3678,VALID,168.038,VALID,24.853,VALID,131,VALID,0,
2012-12-28, 09:07:04,VALID,914.86,VALID,0,VALID,74.3283,VALID,167.608,VALID,24.7749,VALID,117,VALID,0,
2012-12-28, 09:08:04,VALID,914.686,VALID,0,VALID,76.0283,VALID,167.393,VALID,24.814,VALID,139,VALID,0,
2012-12-28, 09:09:04,VALID,914.83,VALID,0,VALID,74.0691,VALID,167.501,VALID,24.7944,VALID,185,VALID,0,
2012-12-28, 09:10:04,VALID,914.868,VALID,0,VALID,73.4287,VALID,168.038,VALID,24.814,VALID,241,VALID,0,
2012-12-28, 09:11:04,VALID,914.843,VALID,0,VALID,73.0399,VALID,168.683,VALID,24.8921,VALID,185,VALID,0,
2012-12-28, 09:12:04,VALID,914.802,VALID,0,VALID,73.6193,VALID,169.327,VALID,25.0093,VALID,185,VALID,0,
2012-12-28, 09:13:04,VALID,915.011,VALID,0,VALID,72.1023,VALID,169.972,VALID,25.146,VALID,188,VALID,0,
2012-12-28, 09:14:04,VALID,914.772,VALID,0,VALID,72.1023,VALID,171.046,VALID,25.2436,VALID,203,VALID,0,
2012-12-28, 09:15:04,VALID,914.935,VALID,0,VALID,70.3794,VALID,171.906,VALID,25.2827,VALID,201,VALID,0,
2012-12-28, 09:16:04,VALID,914.839,VALID,0,VALID,71.4009,VALID,173.088,VALID,25.3022,VALID,201,VALID,0,
2012-12-28, 09:17:04,VALID,914.952,VALID,0,VALID,73.0171,VALID,174.807,VALID,25.1069,VALID,237,VALID,0,
2012-12-28, 09:18:04,VALID,914.679,VALID,0,VALID,73.1467,VALID,176.956,VALID,25.0679,VALID,119,VALID,0,
2012-12-28, 09:19:04,VALID,914.971,VALID,0,VALID,75.2736,VALID,179.319,VALID,24.8921,VALID,114,VALID,0,
2012-12-28, 09:20:04,VALID,914.841,VALID,0,VALID,74.5951,VALID,182.005,VALID,24.7554,VALID,150,VALID,0,
2012-12-28, 09:21:04,VALID,914.875,VALID,0,VALID,74.8315,VALID,184.906,VALID,24.7554,VALID,136,VALID,0,
2012-12-28, 09:22:04,VALID,914.927,VALID,0,VALID,75.266,VALID,188.882,VALID,24.8511,VALID,173,VALID,0,
2012-12-28, 09:23:04,VALID,914.88,VALID,0,VALID,73.0476,VALID,193.824,VALID,24.8921,VALID,182,VALID,0,
2012-12-28, 09:24:04,VALID,915.221,VALID,0,VALID,73.3144,VALID,199.841,VALID,25.0679,VALID,227,VALID,0,
2012-12-28, 09:25:04,VALID,914.647,VALID,0,VALID,73.5431,VALID,209.188,VALID,25.2241,VALID,197,VALID,0,
2012-12-28, 09:26:04,VALID,915.342,VALID,0,VALID,72.1099,VALID,221.221,VALID,25.2808,VALID,216,VALID,0,
2012-12-28, 09:27:04,VALID,914.935,VALID,0,VALID,71.2789,VALID,237.123,VALID,25.3804,VALID,209,VALID,0,
2012-12-28, 09:28:04,VALID,914.916,VALID,0,VALID,71.3552,VALID,258.718,VALID,25.4175,VALID,228,VALID,0,
2012-12-28, 09:29:04,VALID,914.921,VALID,0,VALID,71.0807,VALID,296.323,VALID,25.4975,VALID,188,VALID,0,
2012-12-28, 09:30:04,VALID,915.044,VALID,0,VALID,70.326,VALID,331.349,VALID,25.4565,VALID,243,VALID,0,
2012-12-28, 09:31:04,VALID,914.904,VALID,0,VALID,71.3475,VALID,368.738,VALID,25.4761,VALID,220,VALID,0,
2012-12-28, 09:32:04,VALID,914.979,VALID,0,VALID,70.5928,VALID,392.268,VALID,25.6323,VALID,186,VALID,0,
2012-12-28, 09:33:04,VALID,914.859,VALID,0,VALID,69.4265,VALID,393.879,VALID,25.7105,VALID,198,VALID,0,
2012-12-28, 09:34:04,VALID,914.201,VALID,0,VALID,70.3336,VALID,384.639,VALID,25.7886,VALID,198,VALID,0,
2012-12-28, 09:35:04,VALID,914.832,VALID,0,VALID,69.4265,VALID,369.598,VALID,25.7886,VALID,198,VALID,0,
2012-12-28, 09:36:04,VALID,914.728,VALID,0,VALID,69.8686,VALID,358.209,VALID,25.7886,VALID,290,VALID,0,
2012-12-28, 09:37:04,VALID,914.948,VALID,0,VALID,69.7695,VALID,354.126,VALID,25.6929,VALID,287,VALID,0,
2012-12-28, 09:38:04,VALID,915.055,VALID,0,VALID,70.5623,VALID,343.919,VALID,25.5542,VALID,236,VALID,0,
2012-12-28, 09:39:04,VALID,914.786,VALID,0,VALID,72.3996,VALID,338.977,VALID,25.5327,VALID,197,VALID,0,
2012-12-28, 09:40:04,VALID,915.153,VALID,0,VALID,71.0045,VALID,342.952,VALID,25.6128,VALID,226,VALID,0,
2012-12-28, 09:41:04,VALID,915.114,VALID,0,VALID,71.7516,VALID,339.836,VALID,25.5542,VALID,183,VALID,0,
2012-12-28, 09:42:04,VALID,915.173,VALID,0,VALID,71.2789,VALID,357.886,VALID,25.5933,VALID,181,VALID,0,
2012-12-28, 09:43:04,VALID,914.747,VALID,0,VALID,71.5458,VALID,384.102,VALID,25.6909,VALID,182,VALID,0,
2012-12-28, 09:44:04,VALID,914.79,VALID,0,VALID,73.1543,VALID,406.235,VALID,25.7691,VALID,138,VALID,0,
2012-12-28, 09:45:04,VALID,914.98,VALID,0,VALID,70.2727,VALID,403.549,VALID,25.6519,VALID,178,VALID,0,
2012-12-28, 09:46:04,VALID,914.914,VALID,0,VALID,70.7605,VALID,401.615,VALID,25.689,VALID,184,VALID,0,
2012-12-28, 09:47:04,VALID,915.533,VALID,0,VALID,69.9067,VALID,400.433,VALID,25.7495,VALID,179,VALID,0,
2012-12-28, 09:48:04,VALID,915.255,VALID,0,VALID,70.4404,VALID,364.225,VALID,25.8081,VALID,176,VALID,0,
2012-12-28, 09:49:04,VALID,915.199,VALID,0,VALID,70.0821,VALID,332.53,VALID,25.9859,VALID,166,VALID,0,